Grand Prairie, TX

3:04 PM CDT on April 30, 2017 (GMT -0500)
Grand Prairie Municipal

Weather History for KGPM - October, 2013

Change the Weather History Date:

Friday, October 4, 2013

  Actual Average (KRBD) Record (KRBD)
Temperature  
Mean Temperature 79 °F -  
Max Temperature 87 °F 79 °F 91 °F (1998)
Min Temperature 71 °F 58 °F 48 °F (2014)
Cooling Degree Days 14    
Growing Degree Days 29 (Base 50)    
Moisture  
Dew Point 67 °F    
Average Humidity 70    
Maximum Humidity 88    
Minimum Humidity 46    
Precipitation  
Precipitation 0.00 in - - ()
Sea Level Pressure  
Sea Level Pressure 29.89 in    
Wind  
Wind Speed 10 mph (SSE)    
Max Wind Speed 15 mph    
Max Gust Speed 21 mph    
Visibility 10 miles    
Events      
Averages and records for this station are not official NWS values.
T = Trace of Precipitation, MM = Missing Value Source: NWS Daily Summary

Daily Weather History Graph

Daily Weather History Graph

Search for Another Location

Airport or City:

Trip Planner

Search our weather history database for the weather conditions in past years. The results will help you decide how hot, cold, wet, or windy it might be!

Date:

Astronomy

Oct. 04, 2013 Rise Set
Actual Time 7:24 AM CDT 7:08 PM CDT
Civil Twilight 6:59 AM CDT 7:33 PM CDT
Nautical Twilight 6:31 AM CDT 8:01 PM CDT
Astronomical Twilight 6:02 AM CDT 8:30 PM CDT
Moon 7:00 AM CDT (10/4) 6:53 PM CDT (10/4)
Length of Visible Light 12h 33m
Length of Day
11h 44m
Waning Crescent, 0% of the Moon is Illuminated
Oct 4
Waning Crescent
Oct 4
New
Oct 11
First Quarter
Oct 18
Full
Oct 26
Last Quarter

Hourly Weather History & Observations

Time (CDT) Temp. Heat Index Dew Point Humidity Pressure Visibility Wind Dir Wind Speed Gust Speed Precip Events Conditions
12:15 AM 77.0 °F - 69.8 °F 78% 29.89 in 10.0 mi South 11.5 mph 19.6 mph N/A   Clear
12:35 AM 77.0 °F - 69.8 °F 78% 29.88 in 10.0 mi SSE 9.2 mph - N/A   Clear
12:55 AM 77.0 °F - 69.8 °F 78% 29.88 in 10.0 mi SSE 6.9 mph 16.1 mph N/A   Clear
1:15 AM 77.0 °F - 69.8 °F 78% 29.89 in 10.0 mi South 12.7 mph 18.4 mph N/A   Clear
1:35 AM 77.0 °F - 69.8 °F 78% 29.89 in 10.0 mi SSE 10.4 mph - N/A   Clear
1:55 AM 77.0 °F - 69.8 °F 78% 29.89 in 10.0 mi South 11.5 mph 17.3 mph N/A   Clear
2:15 AM 77.0 °F - 69.8 °F 78% 29.89 in 10.0 mi SSE 10.4 mph - N/A   Clear
2:35 AM 75.2 °F - 69.8 °F 83% 29.89 in 10.0 mi South 9.2 mph 17.3 mph N/A   Clear
2:55 AM 75.2 °F - 69.8 °F 83% 29.89 in 10.0 mi South 8.1 mph - N/A   Clear
3:15 AM 75.2 °F - 69.8 °F 83% 29.89 in 10.0 mi South 10.4 mph - N/A   Clear
3:35 AM 73.4 °F - 68.0 °F 83% 29.89 in 10.0 mi South 9.2 mph - N/A   Clear
3:55 AM 73.4 °F - 68.0 °F 83% 29.90 in 10.0 mi South 6.9 mph - N/A   Clear
4:15 AM 73.4 °F - 68.0 °F 83% 29.90 in 10.0 mi South 6.9 mph - N/A   Clear
4:35 AM 73.4 °F - 68.0 °F 83% 29.90 in 10.0 mi South 8.1 mph - N/A   Clear
4:55 AM 73.4 °F - 68.0 °F 83% 29.91 in 10.0 mi South 6.9 mph - N/A   Clear
5:15 AM 73.4 °F - 68.0 °F 83% 29.91 in 10.0 mi South 4.6 mph - N/A   Clear
5:35 AM 73.4 °F - 68.0 °F 83% 29.91 in 10.0 mi South 6.9 mph - N/A   Clear
5:55 AM 73.4 °F - 68.0 °F 83% 29.91 in 10.0 mi South 8.1 mph - N/A   Clear
6:15 AM 71.6 °F - 68.0 °F 88% 29.92 in 10.0 mi South 6.9 mph - N/A   Clear
6:35 AM 71.6 °F - 68.0 °F 88% 29.92 in 10.0 mi South 6.9 mph - N/A   Scattered Clouds
6:50 AM 73.4 °F - 69.8 °F 88% 29.92 in 10.0 mi SSE 6.9 mph - N/A   Scattered Clouds
6:55 AM 71.6 °F - 68.0 °F 88% 29.92 in 10.0 mi SSE 8.1 mph - N/A   Mostly Cloudy
7:50 AM 73.4 °F - 69.8 °F 88% 29.92 in 10.0 mi SSE 6.9 mph - N/A   Scattered Clouds
8:50 AM 75.2 °F - 69.8 °F 83% 29.93 in 10.0 mi SSE 10.4 mph - N/A   Mostly Cloudy
9:50 AM 82.4 °F 85.4 °F 68.0 °F 62% 29.95 in 10.0 mi South 9.2 mph - N/A   Mostly Cloudy
10:50 AM 78.8 °F - 66.2 °F 65% 29.95 in 10.0 mi SSW 15.0 mph - N/A   Mostly Cloudy
11:50 AM 82.4 °F 84.6 °F 66.2 °F 58% 29.93 in 10.0 mi South 11.5 mph 17.3 mph N/A   Mostly Cloudy
12:50 PM 82.4 °F 84.6 °F 66.2 °F 58% 29.91 in 10.0 mi SSE 13.8 mph 17.3 mph N/A   Scattered Clouds
1:50 PM 84.2 °F 85.6 °F 64.4 °F 51% 29.88 in 10.0 mi SSE 11.5 mph 20.7 mph N/A   Scattered Clouds
2:50 PM 87.8 °F 89.4 °F 64.4 °F 46% 29.88 in 10.0 mi South 11.5 mph 20.7 mph N/A   Scattered Clouds
3:50 PM 87.8 °F 89.4 °F 64.4 °F 46% 29.87 in 10.0 mi South 13.8 mph 17.3 mph N/A   Scattered Clouds
4:50 PM 87.8 °F 89.4 °F 64.4 °F 46% 29.86 in 10.0 mi SSE 11.5 mph 18.4 mph N/A   Scattered Clouds
5:50 PM 87.8 °F 89.4 °F 64.4 °F 46% 29.86 in 10.0 mi SE 10.4 mph - N/A   Scattered Clouds
6:50 PM 84.2 °F 86.6 °F 66.2 °F 55% 29.86 in 10.0 mi SE 10.4 mph - N/A   Clear
7:50 PM 82.4 °F 84.6 °F 66.2 °F 58% 29.86 in 10.0 mi SE 9.2 mph - N/A   Clear
8:50 PM 82.4 °F 84.6 °F 66.2 °F 58% 29.87 in 10.0 mi SE 8.1 mph - N/A   Clear
9:15 PM 80.6 °F 82.3 °F 64.4 °F 58% 29.87 in 10.0 mi SSE 11.5 mph 19.6 mph N/A   Clear
9:35 PM 80.6 °F 82.3 °F 64.4 °F 58% 29.87 in 10.0 mi SSE 10.4 mph 17.3 mph N/A   Clear
9:55 PM 80.6 °F 82.3 °F 64.4 °F 58% 29.88 in 10.0 mi SSE 10.4 mph - N/A   Clear
10:15 PM 80.6 °F 82.3 °F 64.4 °F 58% 29.88 in 10.0 mi SSE 12.7 mph 16.1 mph N/A   Clear
10:35 PM 78.8 °F - 64.4 °F 61% 29.88 in 10.0 mi South 12.7 mph 17.3 mph N/A   Clear
10:55 PM 78.8 °F - 64.4 °F 61% 29.89 in 10.0 mi SSE 6.9 mph - N/A   Clear
11:15 PM 78.8 °F - 64.4 °F 61% 29.89 in 10.0 mi SSE 6.9 mph - N/A   Clear
11:35 PM 78.8 °F - 64.4 °F 61% 29.89 in 10.0 mi South 8.1 mph - N/A   Clear
11:55 PM 78.8 °F - 64.4 °F 61% 29.89 in 10.0 mi South 9.2 mph - N/A   Clear